• In Moldova, Republic
  • List of Countries
  • For 7 days
  • Water Temperature
  • Satellite Maps
  • Weather Map
  • Weather Widgets
  • user-avatar
    Login

    Hourly Weather Adelaide

    Today, 18 September, Tuesday

    Time Temperature Precipitation Wind Pressure Humidity
    00:00 +16°C° 0 mm 7 mps 753 mmHg 24%
    01:00 +15°C° 0 mm 7 mps 753 mmHg 30%
    02:00 +14°C° 0 mm 6 mps 753 mmHg 37%
    03:00 +14°C° 0 mm 6 mps 753 mmHg 50%
    04:00 +13°C° 0 mm 6 mps 754 mmHg 60%
    05:00 +13°C° 0 mm 6 mps 754 mmHg 70%
    06:00 +11°C° 0 mm 6 mps 755 mmHg 80%
    07:00 +13°C° 0 mm 6 mps 755 mmHg 73%
    08:00 +14°C° 0 mm 6 mps 755 mmHg 66%
    09:00 +14°C° 0 mm 6 mps 756 mmHg 59%
    10:00 +15°C° 0.1 mm 6 mps 756 mmHg 58%
    11:00 +15°C° 0.1 mm 7 mps 755 mmHg 56%
    12:00 +16°C° 0.1 mm 8 mps 755 mmHg 55%
    13:00 +15°C° 0.1 mm 8 mps 755 mmHg 55%
    14:00 +15°C° 0.1 mm 8 mps 755 mmHg 56%
    15:00 +14°C° 0 mm 7 mps 755 mmHg 59%
    16:00 +12°C° 0 mm 7 mps 756 mmHg 60%
    17:00 +11°C° 0 mm 6 mps 756 mmHg 61%
    18:00 +10°C° 0 mm 6 mps 757 mmHg 62%
    19:00 +10°C° 0 mm 6 mps 757 mmHg 64%
    20:00 +9°C° 0 mm 6 mps 757 mmHg 66%
    21:00 +9°C° 0 mm 6 mps 758 mmHg 69%
    22:00 +9°C° 0 mm 6 mps 758 mmHg 69%
    23:00 +8°C° 0 mm 6 mps 758 mmHg 69%

    Tomorrow, 19 September, Wednesday

    Time Temperature Precipitation Wind Pressure Humidity
    00:00 +8°C° 0 mm 6 mps 758 mmHg 70%
    01:00 +8°C° 0 mm 5 mps 758 mmHg 70%
    02:00 +8°C° 0 mm 5 mps 758 mmHg 71%
    03:00 +8°C° 0 mm 5 mps 758 mmHg 72%
    04:00 +7°C° 0 mm 5 mps 759 mmHg 73%
    05:00 +7°C° 0 mm 4 mps 759 mmHg 74%
    06:00 +7°C° 0 mm 4 mps 759 mmHg 75%
    07:00 +9°C° 0 mm 5 mps 759 mmHg 68%
    08:00 +12°C° 0 mm 5 mps 760 mmHg 62%
    09:00 +13°C° 0 mm 5 mps 760 mmHg 55%
    10:00 +14°C° 0.1 mm 5 mps 760 mmHg 54%
    11:00 +14°C° 0.1 mm 5 mps 760 mmHg 52%
    12:00 +14°C° 0.1 mm 6 mps 760 mmHg 51%
    13:00 +14°C° 0.1 mm 6 mps 760 mmHg 52%
    14:00 +14°C° 0.1 mm 6 mps 760 mmHg 54%
    15:00 +14°C° 0.1 mm 6 mps 760 mmHg 55%
    16:00 +13°C° 0 mm 5 mps 760 mmHg 60%
    17:00 +12°C° 0 mm 5 mps 761 mmHg 66%
    18:00 +11°C° 0 mm 4 mps 761 mmHg 72%
    19:00 +11°C° 0 mm 4 mps 761 mmHg 74%
    20:00 +10°C° 0 mm 4 mps 762 mmHg 77%
    21:00 +10°C° 0 mm 4 mps 762 mmHg 80%
    22:00 +10°C° 0.1 mm 4 mps 762 mmHg 82%
    23:00 +10°C° 0.1 mm 4 mps 762 mmHg 84%

    Day after tomorrow, 20 September, Thursday

    Time Temperature Precipitation Wind Pressure Humidity
    00:00 +10°C° 0.1 mm 4 mps 762 mmHg 87%
    01:00 +10°C° 0.1 mm 4 mps 762 mmHg 88%
    02:00 +10°C° 0.1 mm 4 mps 762 mmHg 89%
    03:00 +10°C° 0.1 mm 3 mps 762 mmHg 90%
    04:00 +10°C° 0 mm 3 mps 762 mmHg 90%
    05:00 +10°C° 0 mm 3 mps 763 mmHg 90%
    06:00 +10°C° 0 mm 3 mps 763 mmHg 89%
    07:00 +11°C° 0 mm 3 mps 763 mmHg 82%
    08:00 +13°C° 0 mm 3 mps 764 mmHg 76%
    09:00 +14°C° 0 mm 3 mps 764 mmHg 69%
    10:00 +16°C° 0 mm 3 mps 765 mmHg 66%
    11:00 +15°C° 0 mm 4 mps 765 mmHg 63%
    12:00 +17°C° 0 mm 4 mps 765 mmHg 60%
    13:00 +17°C° 0 mm 4 mps 765 mmHg 60%
    14:00 +17°C° 0 mm 4 mps 764 mmHg 60%
    15:00 +17°C° 0 mm 4 mps 764 mmHg 60%
    16:00 +14°C° 0 mm 3 mps 765 mmHg 66%
    17:00 +13°C° 0 mm 3 mps 765 mmHg 72%
    18:00 +13°C° 0 mm 2 mps 765 mmHg 78%
    19:00 +12°C° 0 mm 2 mps 766 mmHg 80%
    20:00 +11°C° 0 mm 1 mps 766 mmHg 82%
    21:00 +11°C° 0 mm 1 mps 766 mmHg 84%
    22:00 +10°C° 0 mm 1 mps 766 mmHg 85%
    23:00 +10°C° 0 mm 1 mps 766 mmHg 86%

    21 September, Friday

    Time Temperature Precipitation Wind Pressure Humidity
    00:00 +10°C° 0 mm 1 mps 766 mmHg 87%
    01:00 +10°C° 0 mm 1 mps 766 mmHg 88%
    02:00 +10°C° 0 mm 1 mps 766 mmHg 89%
    03:00 +9°C° 0 mm 2 mps 766 mmHg 90%
    04:00 +8°C° 0 mm 2 mps 767 mmHg 91%
    05:00 +8°C° 0 mm 2 mps 767 mmHg 91%
    06:00 +8°C° 0 mm 2 mps 767 mmHg 91%
    07:00 +12°C° 0 mm 2 mps 767 mmHg 83%
    08:00 +14°C° 0 mm 2 mps 768 mmHg 74%
    09:00 +16°C° 0 mm 2 mps 768 mmHg 65%
    10:00 +17°C° 0 mm 2 mps 767 mmHg 60%
    11:00 +18°C° 0 mm 2 mps 767 mmHg 56%
    12:00 +19°C° 0 mm 2 mps 766 mmHg 51%
    13:00 +19°C° 0 mm 2 mps 766 mmHg 51%
    14:00 +20°C° 0 mm 2 mps 765 mmHg 52%
    15:00 +20°C° 0 mm 2 mps 765 mmHg 52%
    16:00 +18°C° 0 mm 2 mps 765 mmHg 60%
    17:00 +16°C° 0 mm 2 mps 765 mmHg 67%
    18:00 +14°C° 0 mm 1 mps 765 mmHg 75%
    19:00 +14°C° 0 mm 1 mps 766 mmHg 77%
    20:00 +13°C° 0 mm 1 mps 766 mmHg 79%
    21:00 +12°C° 0 mm 1 mps 767 mmHg 81%
    22:00 +12°C° 0 mm 1 mps 766 mmHg 81%
    23:00 +12°C° 0 mm 1 mps 766 mmHg 81%

    22 September, Saturday

    Time Temperature Precipitation Wind Pressure Humidity
    00:00 +12°C° 0 mm 1 mps 766 mmHg 81%
    01:00 +12°C° 0 mm 1 mps 766 mmHg 83%
    02:00 +12°C° 0 mm 1 mps 766 mmHg 84%
    03:00 +11°C° 0 mm 1 mps 765 mmHg 85%
    04:00 +10°C° 0 mm 2 mps 766 mmHg 85%
    05:00 +10°C° 0 mm 2 mps 766 mmHg 86%
    06:00 +10°C° 0 mm 2 mps 766 mmHg 86%
    07:00 +14°C° 0 mm 2 mps 766 mmHg 77%
    08:00 +16°C° 0 mm 2 mps 767 mmHg 68%
    09:00 +18°C° 0 mm 2 mps 767 mmHg 59%
    10:00 +19°C° 0 mm 3 mps 767 mmHg 54%
    11:00 +20°C° 0 mm 3 mps 766 mmHg 50%
    12:00 +21°C° 0 mm 3 mps 766 mmHg 45%
    13:00 +21°C° 0 mm 3 mps 766 mmHg 46%
    14:00 +21°C° 0 mm 3 mps 766 mmHg 47%
    15:00 +21°C° 0 mm 3 mps 765 mmHg 47%
    16:00 +19°C° 0 mm 3 mps 766 mmHg 56%
    17:00 +17°C° 0 mm 3 mps 766 mmHg 65%
    18:00 +14°C° 0 mm 3 mps 767 mmHg 74%
    19:00 +14°C° 0 mm 3 mps 767 mmHg 80%
    20:00 +13°C° 0 mm 3 mps 768 mmHg 85%
    21:00 +12°C° 0 mm 3 mps 768 mmHg 91%
    22:00 +12°C° 0 mm 3 mps 768 mmHg 91%
    23:00 +12°C° 0 mm 3 mps 768 mmHg 91%

    23 September, Sunday

    Time Temperature Precipitation Wind Pressure Humidity
    00:00 +12°C° 0 mm 3 mps 768 mmHg 92%
    01:00 +12°C° 0 mm 3 mps 768 mmHg 91%
    02:00 +12°C° 0 mm 3 mps 768 mmHg 89%
    03:00 +12°C° 0 mm 4 mps 768 mmHg 88%
    04:00 +11°C° 0 mm 4 mps 768 mmHg 88%
    05:00 +11°C° 0 mm 4 mps 768 mmHg 87%
    06:00 +10°C° 0 mm 4 mps 769 mmHg 87%
    07:00 +11°C° 0 mm 4 mps 769 mmHg 80%
    08:00 +13°C° 0 mm 4 mps 769 mmHg 72%
    09:00 +14°C° 0 mm 4 mps 770 mmHg 64%
    10:00 +15°C° 0 mm 4 mps 769 mmHg 60%
    11:00 +17°C° 0 mm 4 mps 769 mmHg 55%
    12:00 +18°C° 0 mm 4 mps 769 mmHg 51%
    13:00 +17°C° 0 mm 4 mps 769 mmHg 50%
    14:00 +16°C° 0 mm 5 mps 768 mmHg 50%
    15:00 +16°C° 0 mm 5 mps 768 mmHg 49%
    16:00 +15°C° 0 mm 5 mps 768 mmHg 54%
    17:00 +13°C° 0 mm 6 mps 769 mmHg 59%
    18:00 +10°C° 0 mm 6 mps 769 mmHg 64%
    19:00 +9°C° 0 mm 5 mps 769 mmHg 68%
    20:00 +8°C° 0 mm 5 mps 770 mmHg 71%
    21:00 +8°C° 0 mm 5 mps 770 mmHg 74%
    22:00 +7°C° 0 mm 5 mps 770 mmHg 75%
    23:00 +7°C° 0 mm 5 mps 769 mmHg 76%
    Show more